This demonstration page uses our WeatherBlox Daily Observations layout. Learn more.

38.88101, -77.10428

Hourly Observations for June 19, 2015

Temp ( °F °C ) Dew Point ( °F °C ) Humidity (%) Winds ( mph kmh ) Pressure ( in mb ) Visibility ( mi km ) Precip ( " mm )
12:52 am 00:52 Cloudy 77 25 72 22.2 85 85 SE 3 6 29.95 1014 10 16.0934 0 0
1:52 am 01:52 Cloudy 78 25.6 73 22.8 85 85 VRB 3 6 29.97 1015 10 16.0934 0 0
1:58 am 01:58 Cloudy 79 26 73 23 84 84 W 10 17 29.97 1015 10 16.0934 0 0
2:03 am 02:03 Cloudy with Light Rain 79 26 72 22 79 79 W 16 26 29.97 1015 4 6.43736 0 0
2:06 am 02:06 Mostly Cloudy with Heavy Rain 79 26 72 22 79 79 WNW 16 26 29.97 1015 2.5 4.02335 0 0
2:12 am 02:12 Cloudy with Light Rain 77 25 70 21 79 79 NW 15 24 29.97 1015 8 12.87472 0 0
2:52 am 02:52 Cloudy with Light Rain 76 24.4 70 21.1 82 82 Calm 29.95 1014 10 16.0934 0.12 3.048
3:52 am 03:52 Cloudy 73 22.8 68 20 84 84 SSW 6 9 29.94 1014 10 16.0934 0 0.0254
4:52 am 04:52 Cloudy 73 22.8 68 20 84 84 Calm 29.94 1014 10 16.0934 0 0
5:52 am 05:52 Mostly Cloudy 74 23.3 67 19.4 79 79 Calm 29.94 1014 10 16.0934 0 0
6:52 am 06:52 Mostly Cloudy 75 23.9 68 20 79 79 Calm 29.96 1014 10 16.0934 0 0
7:52 am 07:52 Mostly Cloudy 77 25 68 20 74 74 WNW 3 6 29.97 1015 10 16.0934 0 0
8:52 am 08:52 Mostly Cloudy 80 26.7 68 20 67 67 WNW 7 11 29.97 1015 10 16.0934 0 0
9:52 am 09:52 Mostly Cloudy 84 28.9 68 20 59 59 NW 9 15 29.99 1016 10 16.0934 0 0
10:52 am 10:52 Cloudy 84 28.9 66 18.9 55 55 WNW 16 26 29.99 1016 10 16.0934 0 0
11:52 am 11:52 Cloudy 87 30.6 68 20 53 53 NW 10 17 29.99 1016 10 16.0934 0 0
12:52 pm 12:52 Mostly Cloudy 86 30 67 19.4 53 53 WNW 15 24 29.99 1016 10 16.0934 0 0
1:52 pm 13:52 Mostly Cloudy 87 30.6 68 20 53 53 VRB 7 11 29.98 1015 10 16.0934 0 0
2:52 pm 14:52 Cloudy 86 30 69 20.6 57 57 W 12 19 29.97 1015 10 16.0934 0 0
3:52 pm 15:52 Mostly Cloudy 87 30.6 69 20.6 55 55 VRB 6 9 29.97 1015 10 16.0934 0 0
4:52 pm 16:52 Mostly Cloudy 88 31.1 68 20 52 52 W 10 17 29.96 1015 10 16.0934 0 0
5:52 pm 17:52 Cloudy 88 31 66 19 49 49 WNW 7 11 29.97 1015 10 16.0934 0 0
6:52 pm 18:52 Cloudy 86 30 67 19.4 53 53 WNW 8 13 29.96 1015 10 16.0934 0 0
7:52 pm 19:52 Cloudy 86 30 66 18.9 51 51 W 10 17 29.96 1015 10 16.0934 0 0
8:52 pm 20:52 Cloudy 85 29.4 66 18.9 53 53 W 12 19 29.98 1015 10 16.0934 0 0
9:52 pm 21:52 Cloudy 78 25.6 69 20.6 74 74 WSW 5 7 29.99 1016 10 16.0934 0 0.0254
10:52 pm 22:52 Cloudy 78 25.6 68 20 71 71 W 8 13 30.01 1016 10 16.0934 0 0.0254
11:52 pm 23:52 Cloudy 77 25 68 20 74 74 WNW 3 6 30.01 1016 10 16.0934 0 0

Powered by AerisWeather